Paynesville, MN

6:06 PM CDT on July 23, 2017 (GMT -0500)
Paynesville

Weather History for KPEX - February, 2013

Change the Weather History Date:

Sunday, February 17, 2013

  Actual Average (KLJF) Record (KLJF)
Temperature  
Mean Temperature 18 °F -  
Max Temperature 30 °F 27 °F 60 °F (2017)
Min Temperature 6 °F 8 °F -31 °F (1993)
Degree Days  
Heating Degree Days 47    
Moisture  
Dew Point 15 °F    
Average Humidity 81    
Maximum Humidity 90    
Minimum Humidity 74    
Precipitation  
Precipitation 0.00 in - - ()
Sea Level Pressure  
Sea Level Pressure 29.79 in    
Wind  
Wind Speed 11 mph (SE)    
Max Wind Speed 20 mph    
Max Gust Speed 26 mph    
Visibility 10 miles    
Events      
Averages and records for this station are not official NWS values.
T = Trace of Precipitation, MM = Missing Value Source: NWS Daily Summary

Daily Weather History Graph

Daily Weather History Graph

Search for Another Location

Airport or City:

Trip Planner

Search our weather history database for the weather conditions in past years. The results will help you decide how hot, cold, wet, or windy it might be!

Date:

Astronomy

Feb. 17, 2013 Rise Set
Actual Time 7:16 AM CST 5:49 PM CST
Civil Twilight 6:46 AM CST 6:19 PM CST
Nautical Twilight 6:12 AM CST 6:54 PM CST
Astronomical Twilight 5:38 AM CST 7:28 PM CST
Moon 10:47 AM CST (2/17) 1:08 AM CST (2/17)
Length of Visible Light 11h 33m
Length of Day
10h 32m
Waxing Crescent, 49% of the Moon is Illuminated
Feb 17
Waxing Crescent
Feb 17
First Quarter
Feb 25
Full
Mar 4
Last Quarter
Mar 11
New

Hourly Weather History & Observations

Time (CST) Temp. Windchill Dew Point Humidity Pressure Visibility Wind Dir Wind Speed Gust Speed Precip Events Conditions
12:13 AM 9.5 °F -1.5 °F 4.1 °F 79% 30.04 in 10.0 mi SE 6.9 mph - N/A   Clear
12:33 AM 9.5 °F -3.5 °F 4.3 °F 79% 30.03 in 10.0 mi SE 9.2 mph - N/A   Clear
12:53 AM 9.0 °F -3.2 °F 4.1 °F 81% 30.03 in 10.0 mi SE 8.1 mph - N/A   Scattered Clouds
1:13 AM 9.5 °F -4.4 °F 4.8 °F 81% 30.02 in 10.0 mi SE 10.4 mph - N/A   Overcast
1:33 AM 9.5 °F -3.5 °F 5.0 °F 82% 30.02 in 10.0 mi SE 9.2 mph - N/A   Scattered Clouds
1:53 AM 9.3 °F -1.7 °F 5.0 °F 83% 30.02 in 10.0 mi SE 6.9 mph - N/A   Clear
2:13 AM 9.9 °F -1.1 °F 5.7 °F 83% 30.02 in 10.0 mi SE 6.9 mph - N/A   Scattered Clouds
2:33 AM 10.4 °F -2.4 °F 6.1 °F 83% 30.02 in 10.0 mi SE 9.2 mph - N/A   Mostly Cloudy
2:53 AM 10.8 °F -2.8 °F 6.6 °F 83% 30.00 in 10.0 mi SE 10.4 mph - N/A   Overcast
3:13 AM 10.4 °F -4.1 °F 6.4 °F 84% 30.00 in 10.0 mi SE 11.5 mph - N/A   Mostly Cloudy
3:33 AM 10.0 °F -4.5 °F 5.9 °F 83% 29.99 in 10.0 mi SE 11.5 mph - N/A   Scattered Clouds
3:53 AM 9.5 °F -4.4 °F 5.9 °F 85% 29.99 in 10.0 mi SE 10.4 mph - N/A   Clear
4:13 AM 9.1 °F -5.6 °F 5.5 °F 85% 29.97 in 10.0 mi SE 11.5 mph - N/A   Clear
4:33 AM 8.2 °F -6.0 °F 4.8 °F 86% 29.97 in 10.0 mi SE 10.4 mph - N/A   Clear
4:53 AM 7.5 °F -6.0 °F 4.1 °F 86% 29.97 in 10.0 mi SE 9.2 mph - N/A   Clear
5:13 AM 6.8 °F -5.9 °F 3.7 °F 87% 29.96 in 10.0 mi SE 8.1 mph - N/A   Clear
5:33 AM 7.7 °F -5.8 °F 4.5 °F 87% 29.96 in 10.0 mi SE 9.2 mph - N/A   Mostly Cloudy
5:53 AM 7.9 °F -5.5 °F 4.8 °F 87% 29.95 in 10.0 mi SE 9.2 mph - N/A   Overcast
6:13 AM 8.2 °F -5.1 °F 5.2 °F 87% 29.93 in 10.0 mi SE 9.2 mph - N/A   Scattered Clouds
6:33 AM 8.2 °F -5.1 °F 5.2 °F 87% 29.92 in 10.0 mi SE 9.2 mph - N/A   Clear
6:53 AM 8.1 °F -0.5 °F 5.4 °F 89% 29.94 in 10.0 mi SE 4.6 mph - N/A   Scattered Clouds
7:12 AM 9.0 °F -2.2 °F 6.4 °F 89% 29.92 in 10.0 mi SE 6.9 mph - N/A   Mostly Cloudy
7:33 AM 10.0 °F -1.9 °F 7.5 °F 90% 29.91 in 10.0 mi SE 8.1 mph - N/A   Overcast
7:53 AM 10.6 °F -2.2 °F 8.1 °F 90% 29.90 in 10.0 mi SE 9.2 mph - N/A   Scattered Clouds
8:12 AM 11.1 °F -1.6 °F 8.6 °F 90% 29.90 in 10.0 mi SE 9.2 mph - N/A   Clear
8:33 AM 12.0 °F -1.3 °F 9.3 °F 89% 29.89 in 10.0 mi SE 10.4 mph - N/A   Clear
8:53 AM 12.9 °F 1.6 °F 10.0 °F 88% 29.89 in 10.0 mi SE 8.1 mph - N/A   Clear
9:13 AM 14.9 °F 6.1 °F 11.5 °F 86% 29.88 in 10.0 mi SSE 5.8 mph - N/A   Clear
9:33 AM 17.4 °F 4.7 °F 13.6 °F 85% 29.86 in 10.0 mi SSE 11.5 mph - N/A   Clear
9:53 AM 18.5 °F 4.9 °F 14.0 °F 83% 29.85 in 10.0 mi SE 13.8 mph - N/A   Clear
10:13 AM 19.4 °F 6.6 °F 14.5 °F 81% 29.84 in 10.0 mi SE 12.7 mph 21.9 mph N/A   Clear
10:33 AM 20.1 °F 8.1 °F 14.9 °F 80% 29.85 in 10.0 mi SSE 11.5 mph 18.4 mph N/A   Clear
10:53 AM 21.4 °F 9.7 °F 15.6 °F 78% 29.84 in 10.0 mi SSE 11.5 mph 20.7 mph N/A   Clear
11:13 AM 22.8 °F 10.4 °F 16.5 °F 77% 29.82 in 10.0 mi SSE 13.8 mph - N/A   Clear
11:33 AM 23.4 °F 11.1 °F 16.7 °F 76% 29.82 in 10.0 mi SSE 13.8 mph - N/A   Clear
11:53 AM 23.9 °F 13.5 °F 17.2 °F 76% 29.82 in 10.0 mi SSE 10.4 mph - N/A   Clear
12:13 PM 24.4 °F 13.5 °F 17.6 °F 75% 29.80 in 10.0 mi SE 11.5 mph 18.4 mph N/A   Clear
12:33 PM 24.8 °F 11.9 °F 18.0 °F 75% 29.79 in 10.0 mi SE 16.1 mph 23.0 mph N/A   Clear
12:53 PM 25.7 °F 14.0 °F 18.5 °F 74% 29.77 in 10.0 mi SSE 13.8 mph 21.9 mph N/A   Clear
1:13 PM 26.2 °F 13.4 °F 19.2 °F 75% 29.77 in 10.0 mi SE 17.3 mph 23.0 mph N/A   Clear
1:33 PM 27.0 °F 13.9 °F 19.8 °F 74% 29.75 in 10.0 mi SE 18.4 mph - N/A   Clear
1:53 PM 27.5 °F 15.9 °F 20.5 °F 75% 29.73 in 10.0 mi SE 15.0 mph 26.5 mph N/A   Clear
2:13 PM 27.9 °F 15.5 °F 20.7 °F 74% 29.72 in 10.0 mi SE 17.3 mph 21.9 mph N/A   Clear
2:33 PM 28.4 °F 16.2 °F 21.2 °F 74% 29.71 in 10.0 mi SE 17.3 mph - N/A   Clear
2:53 PM 29.1 °F 16.4 °F 21.9 °F 74% 29.69 in 10.0 mi SE 19.6 mph 25.3 mph N/A   Clear
3:13 PM 29.5 °F 18.0 °F 22.6 °F 76% 29.69 in 10.0 mi SE 16.1 mph 24.2 mph N/A   Clear
3:33 PM 30.2 °F 18.5 °F 23.0 °F 75% 29.67 in 10.0 mi SE 17.3 mph 21.9 mph N/A   Clear
3:53 PM 30.6 °F 19.8 °F 23.4 °F 75% 29.66 in 10.0 mi SE 15.0 mph 24.2 mph N/A   Clear
4:13 PM 30.6 °F 19.0 °F 23.5 °F 75% 29.65 in 10.0 mi SE 17.3 mph 23.0 mph N/A   Clear
4:33 PM 30.6 °F 19.0 °F 23.7 °F 76% 29.65 in 10.0 mi SE 17.3 mph 25.3 mph N/A   Clear
4:53 PM 30.4 °F 20.0 °F 23.7 °F 76% 29.65 in 10.0 mi SE 13.8 mph 23.0 mph N/A   Clear
5:13 PM 30.2 °F 18.9 °F 23.9 °F 77% 29.64 in 10.0 mi SE 16.1 mph 21.9 mph N/A   Clear
5:33 PM 30.0 °F 19.1 °F 23.9 °F 78% 29.63 in 10.0 mi SE 15.0 mph 20.7 mph N/A   Clear
5:52 PM 29.7 °F 17.8 °F 23.7 °F 79% 29.63 in 10.0 mi SE 17.3 mph - N/A   Clear
6:13 PM 29.8 °F 18.4 °F 23.9 °F 79% 29.64 in 10.0 mi SE 16.1 mph 21.9 mph N/A   Clear
6:33 PM 29.7 °F 19.6 °F 23.9 °F 79% 29.64 in 10.0 mi SE 12.7 mph 18.4 mph N/A   Clear
6:53 PM 29.3 °F 18.6 °F 23.9 °F 80% 29.63 in 10.0 mi SE 13.8 mph 18.4 mph N/A   Clear
7:12 PM 29.3 °F 18.2 °F 23.9 °F 80% 29.62 in 10.0 mi SE 15.0 mph - N/A   Clear
7:33 PM 29.3 °F 18.2 °F 23.9 °F 80% 29.62 in 10.0 mi SE 15.0 mph 19.6 mph N/A   Clear
7:53 PM 29.3 °F 18.2 °F 24.1 °F 81% 29.61 in 10.0 mi SE 15.0 mph 21.9 mph N/A   Clear
8:12 PM 29.3 °F 18.2 °F 24.3 °F 81% 29.61 in 10.0 mi SE 15.0 mph - N/A   Clear
8:33 PM 29.1 °F 17.9 °F 24.1 °F 81% 29.60 in 10.0 mi SE 15.0 mph - N/A   Clear
8:53 PM 28.9 °F 17.7 °F 23.9 °F 81% 29.60 in 10.0 mi SE 15.0 mph - N/A   Clear
9:13 PM 28.9 °F 18.2 °F 23.9 °F 81% 29.60 in 10.0 mi SE 13.8 mph - N/A   Clear
9:33 PM 28.9 °F 17.7 °F 23.9 °F 81% 29.59 in 10.0 mi SE 15.0 mph 19.6 mph N/A   Clear
9:53 PM 28.4 °F 17.0 °F 23.5 °F 82% 29.58 in 10.0 mi SE 15.0 mph 19.6 mph N/A   Clear
10:13 PM 28.4 °F 18.5 °F 23.5 °F 82% 29.57 in 10.0 mi SE 11.5 mph - N/A   Clear
10:33 PM 28.4 °F 17.0 °F 23.4 °F 81% 29.57 in 10.0 mi SE 15.0 mph - N/A   Clear
10:53 PM 28.4 °F 18.0 °F 23.2 °F 81% 29.56 in 10.0 mi SE 12.7 mph - N/A   Clear
11:13 PM 28.2 °F 16.8 °F 23.0 °F 81% 29.56 in 10.0 mi SE 15.0 mph 19.6 mph N/A   Clear
11:33 PM 28.2 °F 18.3 °F 23.0 °F 81% 29.55 in 10.0 mi SE 11.5 mph - N/A   Clear
11:53 PM 28.2 °F 17.7 °F 23.0 °F 81% 29.54 in 10.0 mi SE 12.7 mph - N/A   Clear